Location: Ca�n Batista
(41.4099°N, 1.7752°E)
Time: 14:51:44
(UTC+00:00)

Meteor 1-11 Rocket - Pass Details

Date: 03 March 2021
Orbit: 831 x 916 km, 81.2° (Epoch: 21 April)

Event Time Altitude Azimuth Distance (km) Brightness Sun altitude
Rises 19:21:37 0° 175° (S) 3,472 6.8 -18.7°
Reaches altitude 10° 19:24:07 10° 171° (S) 2,525 6.0 -19.1°
Maximum altitude 19:29:42 56° 95° (E) 1,027 3.7 -20.2°
Drops below altitude 10° 19:35:11 10° 19° (NNE) 2,487 6.1 -21.2°
Sets 19:37:38 0° 15° (NNE) 3,416 6.8 -21.6°
